Regional Weather Roundup
Issued by NWS

Home | Current Version | Previous Version | Text Only | Print | Product List | Glossary On
Versions: 1 2 3 4 5 6 7 8 9 10 11 12 13 14 15 16 17 18 19 20 21 22 23 24 25 26 27 28 29 30 31 32 33 34 35 36 37 38 39 40 41 42 43 44 45 46 47 48 49 50
000
ASUS45 KREV 310210
RWRNV
NEVADA REGIONAL WEATHER ROUNDUP
NATIONAL WEATHER SERVICE RENO NV
700 PM PDT MON MAY 30 2016

NOTE: "FAIR" INDICATES FEW OR NO CLOUDS BELOW 12,000 FEET WITH NO
SIGNIFICANT WEATHER AND/OR OBSTRUCTIONS TO VISIBILITY.

NVZ001-003-004-310300-
WESTERN NEVADA

CITY           SKY/WX    TMP DP  RH WIND       PRES   REMARKS
RENO           MOSUNNY   83  32  16 NE14      30.04S
CARSON CITY    FAIR      82  32  16 NW12      30.07S
MINDEN         FAIR      79  39  24 NW12      30.07S
SLIDE MTN        N/A     55  34  44 CALM        N/A
FALLON         SUNNY     85  26  11 N7        30.01F
LOVELOCK       SUNNY     85  25  11 NE6       30.02S
HAWTHORNE      SUNNY     82  30  15 W10       30.03S
$$

NVZ002-CAZ072-073-310300-
NORTHERN AND CENTRAL SIERRA

CITY           SKY/WX    TMP DP  RH WIND       PRES   REMARKS
S. LAKE TAHOE  SUNNY     68  41  37 CALM      30.18R
TRUCKEE        PTSUNNY   70  45  40 W12       30.17S
SQUAW VLY 8000 NOT AVBL
SUSANVILLE     SUNNY     81  37  21 SE3       30.05F
MAMMOTH LAKES  FAIR      70  30  23 N10       30.20R
BRIDGEPORT     PTSUNNY   70  30  22 CALM      30.17S
$$

NVZ030-031-036-310300-
NORTHERN NEVADA

CITY           SKY/WX    TMP DP  RH WIND       PRES   REMARKS
ELKO           SUNNY     74  33  22 N13       30.10S
WINNEMUCCA     SUNNY     78  25  14 N9        30.07S
WENDOVER       PTCLDY    77  28  16 N12       30.03S
$$

NVZ035-037-310300-
CENTRAL NEVADA

CITY           SKY/WX    TMP DP  RH WIND       PRES   REMARKS
ELY            CLEAR     71  31  22 N12       30.12R
EUREKA           N/A     70  33  25 N13       30.12S
$$

NVZ013-014-310300-
SOUTH CENTRAL NEVADA

CITY           SKY/WX    TMP DP  RH WIND       PRES   REMARKS
TONOPAH        SUNNY     79  26  14 NW16      30.05S
$$

NVZ017-020-022-310300-
SOUTHERN NEVADA

CITY           SKY/WX    TMP DP  RH WIND       PRES   REMARKS
LAS VEGAS      MOCLDY    93  28  10 E7        29.76F
N. LAS VEGAS   PTCLDY    91  30  11 SE3       29.79F
NELLIS AFB     PTCLDY    93  29  10 SE6       29.77F
HENDERSON      MOCLDY    91  34  13 E7        29.84S
MERCURY        PTCLDY    91  23   8 N7        29.84S
$$



USA.gov is the U.S. government's official web portal to all federal, state and local government web resources and services.